Weather History for Newport, RI

Change the Weather History Date:

Sunday, November 25, 2012

  Actual Average Record
Temperature  
Mean Temperature 36 °F -  
Max Temperature 41 °F 48 °F 65 °F (1979)
Min Temperature 32 °F 34 °F 17 °F (2000)
Degree Days  
Heating Degree Days 28    
Moisture  
Dew Point 19 °F    
Average Humidity 52    
Maximum Humidity 61    
Minimum Humidity 38    
Precipitation  
Precipitation 0.00 in - - ()
Sea Level Pressure  
Sea Level Pressure 29.81 in    
Wind  
Wind Speed 12 mph (West)    
Max Wind Speed 18 mph    
Max Gust Speed 34 mph    
Visibility 10 miles    
Events      
Averages and records for this station are not official NWS values.
T = Trace of Precipitation, MM = Missing Value Source: NWS Daily Summary

Daily Weather History Graph

Daily Weather History Graph

Search for Another Location

Airport:

Trip Planner

Search our weather history database for the weather conditions in past years. The results will help you decide how hot, cold, wet, or windy it might be!

Date:

Astronomy

Nov. 25, 2012 Rise Set
Actual Time 6:46 AM EST 4:18 PM EST
Civil Twilight 6:15 AM EST 4:48 PM EST
Nautical Twilight 5:41 AM EST 5:22 PM EST
Astronomical Twilight 5:08 AM EST 5:55 PM EST
Moon 2:34 PM EST (11/25) 3:55 AM EST (11/25)
Length of Visible Light 10h 33m
Length of Day
9h 31m
Waxing Gibbous, 93% of the Moon is Illuminated
Nov 25
Waxing Gibbous
Nov 28
Full
Dec 6
Last Quarter
Dec 13
New
Dec 20
First Quarter

Hourly Weather History & Observations

Time (EST) Temp. Windchill Dew Point Humidity Pressure Visibility Wind Dir Wind Speed Gust Speed Precip Events Conditions
12:53 AM 33.1 °F 24.4 °F 19.0 °F 56% 29.71 in 10.0 mi West 11.5 mph 26.5 mph N/A   Clear
1:53 AM 33.1 °F 23.9 °F 19.0 °F 56% 29.73 in 10.0 mi West 12.7 mph 20.7 mph N/A   Clear
2:53 AM 33.1 °F 22.6 °F 18.0 °F 54% 29.74 in 10.0 mi WNW 16.1 mph 25.3 mph N/A   Clear
3:53 AM 32.0 °F 23.6 °F 19.0 °F 59% 29.75 in 10.0 mi West 10.4 mph 20.7 mph N/A   Clear
4:53 AM 32.0 °F 20.8 °F 17.1 °F 54% 29.77 in 10.0 mi West 17.3 mph 27.6 mph N/A   Clear
5:53 AM 33.1 °F 22.2 °F 18.0 °F 54% 29.79 in 10.0 mi WNW 17.3 mph 34.5 mph N/A   Clear
6:53 AM 32.0 °F 21.6 °F 17.1 °F 54% 29.82 in 10.0 mi West 15.0 mph 23.0 mph N/A   Clear
7:53 AM 33.1 °F 23.9 °F 19.0 °F 56% 29.83 in 10.0 mi WNW 12.7 mph 17.3 mph N/A   Clear
8:53 AM 34.0 °F 25.5 °F 19.9 °F 56% 29.82 in 10.0 mi WNW 11.5 mph 17.3 mph N/A   Clear
9:53 AM 36.0 °F 26.3 °F 19.0 °F 50% 29.83 in 10.0 mi WNW 16.1 mph 27.6 mph N/A   Clear
10:53 AM 37.0 °F 27.0 °F 17.1 °F 44% 29.81 in 10.0 mi West 18.4 mph 32.2 mph N/A   Clear
11:53 AM 37.9 °F 29.6 °F 18.0 °F 45% 29.78 in 10.0 mi WNW 13.8 mph 17.3 mph N/A   Clear
12:53 PM 39.9 °F 32.1 °F 17.1 °F 40% 29.78 in 10.0 mi West 13.8 mph 23.0 mph N/A   Clear
1:53 PM 41.0 °F 33.9 °F 17.1 °F 38% 29.78 in 10.0 mi West 12.7 mph 21.9 mph N/A   Clear
2:53 PM 39.0 °F 31.4 °F 17.1 °F 41% 29.78 in 10.0 mi West 12.7 mph 19.6 mph N/A   Overcast
3:53 PM 37.9 °F 32.7 °F 18.0 °F 45% 29.80 in 10.0 mi Variable 6.9 mph 17.3 mph N/A   Clear
4:53 PM 37.0 °F 30.4 °F 18.0 °F 46% 29.82 in 10.0 mi West 9.2 mph 17.3 mph N/A   Partly Cloudy
5:53 PM 36.0 °F 31.1 °F 19.0 °F 50% 29.83 in 10.0 mi West 5.8 mph - N/A   Clear
6:53 PM 37.0 °F 33.3 °F 19.0 °F 48% 29.84 in 10.0 mi Variable 4.6 mph - N/A   Clear
7:53 PM 36.0 °F 30.3 °F 21.0 °F 55% 29.86 in 10.0 mi Variable 6.9 mph - N/A   Clear
8:53 PM 35.1 °F 30.1 °F 21.9 °F 59% 29.88 in 10.0 mi WSW 5.8 mph - N/A   Clear
9:53 PM 35.1 °F 28.6 °F 23.0 °F 61% 29.89 in 10.0 mi West 8.1 mph - N/A   Clear
10:53 PM 35.1 °F 29.3 °F 23.0 °F 61% 29.90 in 10.0 mi Variable 6.9 mph - N/A   Clear
11:53 PM 35.1 °F 30.1 °F 23.0 °F 61% 29.90 in 10.0 mi Variable 5.8 mph - N/A   Clear